This demonstration page uses our WeatherBlox Daily Observations layout. Learn more.

Left ArrowRight Arrow

41.86663, -103.66717

Hourly Observations for July 8, 2021

Temp ( °F °C ) Dew Point ( °F °C ) Humidity (%) Winds ( mph kmh ) Pressure ( in mb ) Visibility ( mi km ) Precip ( " mm )
12:53 am 00:53 Clear 73 22.8 53 11.7 50 50 E 13 20 29.74 1007 10 16 0.00 0.00
1:53 am 01:53 Clear 72 22.2 54 12.2 53 53 E 9 15 29.72 1006 10 16 0.00 0.00
2:53 am 02:53 Clear 73 22.8 54 12.2 51 51 SE 3 6 29.71 1006 10 16 0.00 0.00
3:53 am 03:53 Clear 73 22.8 54 12.2 51 51 N 7 11 29.70 1006 10 16 0.00 0.00
4:53 am 04:53 Clear 68 20 54 12.2 61 61 E 8 13 29.71 1006 10 16 0.00 0.00
5:53 am 05:53 Sunny 67 19.4 55 12.8 66 66 ESE 5 7 29.72 1006 10 16 0.00 0.00
6:53 am 06:53 Sunny 68 20 53 11.7 59 59 WNW 10 17 29.74 1007 10 16 0.00 0.00
7:53 am 07:53 Sunny 71 21.7 56 13.3 59 59 W 7 11 29.75 1007 10 16 0.00 0.00
8:53 am 08:53 Sunny 75 23.9 58 14.4 55 55 WNW 9 15 29.76 1008 10 16 0.00 0.00
9:53 am 09:53 Sunny 79 26.1 58 14.4 49 49 W 12 19 29.77 1008 10 16 0.00 0.00
10:53 am 10:53 Sunny 85 29.4 59 15 42 42 WNW 9 15 29.76 1008 10 16 0.00 0.00
11:53 am 11:53 Sunny 89 31.7 59 15 36 36 WNW 12 19 29.75 1008 10 16 0.00 0.00
12:53 pm 12:53 Sunny 93 33.9 58 14.4 31 31 VRB 6 9 29.73 1007 10 16 0.00 0.00
1:53 pm 13:53 Sunny 98 36.7 49 9.4 19 19 NW 6 9 29.71 1006 10 16 0.00 0.00
2:53 pm 14:53 Sunny 100 37.8 47 8.3 16 16 VRB 6 9 29.68 1005 10 16 0.00 0.00
3:53 pm 15:53 Sunny 96 35.6 48 8.9 19 19 W 3 6 29.68 1005 7 11 0.00 0.00
4:53 pm 16:53 Sunny 98 36.7 51 10.6 20 20 S 6 9 29.67 1005 10 16 0.00 0.00
5:53 pm 17:53 Sunny 99 37.2 45 7.2 16 16 S 6 9 29.65 1004 10 16 0.00 0.00
6:53 pm 18:53 Mostly Sunny 92 33.3 66 18.9 43 43 NE 7 11 29.67 1005 10 16 0.02 0.51
7:53 pm 19:53 Sunny 89 31.7 60 15.6 38 38 ENE 3 6 29.67 1005 10 16 0.00 0.00
8:53 pm 20:53 Clear 83 28.3 55 12.8 38 38 Calm 29.68 1005 10 16 0.00 0.00
9:22 pm 21:22 Mostly Clear with Nearby Thunderstorms 81 27.2 56 13.3 42 42 W 6 9 29.59 1002 10 16 0.00 0.00
9:53 pm 21:53 Clear 89 31.7 47 8.3 23 23 undefined N/A 29.69 1006 10 16 0.00 0.00
10:53 pm 22:53 Clear 74 23.3 55 12.8 52 52 SSE 5 7 29.70 1006 10 16 0.00 0.00
11:53 pm 23:53 Clear 73 22.8 53 11.7 50 50 ENE 8 13 29.72 1006 10 16 0.00 0.00

Powered by AerisWeather